Tracking 17844 objects as of 25-August-2016
HD Live streaming from Space Station
objects crossing your sky now

TANSUO 2

Track TANSUO 2 now!
10-day predictions
TANSUO 2 is classified as:


NORAD ID: 28479
Int'l Code: 2004-046A
Perigee: 693.3 km
Apogee: 707.3 km
Inclination: 98.2 °
Period: 98.6 minutes
Semi major axis: 7071 km
RCS: 1.44 m2 (large)
Launch date: November 18, 2004
Source: People's Republic of China (PRC)
Launch site: Xichang Space Center, China (XSC)
Your satellite tracking list
Your tracking list is empty





NASA's NSSDC Master Catalog

Two Line Element Set (TLE):
1 28479U 04046A   16237.83569426  .00000129  00000-0  36350-4 0  9999
2 28479  98.2282 251.2618 0009853 340.7180  19.3646 14.60573117626262
Source of the keplerian elements: AFSPC

N2YO: 592